Location: Roland
(31.1349°N, 85.4372°W)
Time: 18:30:03
(UTC+00:00)

SR - Pass Details

Date: 18 April 2021
Orbit: 573 x 882 km, 66.7° (Epoch: 12 May)

Event Time Altitude Azimuth Distance (km) Brightness Sun altitude
Rises 21:51:00 0° 346° (NNW) 3,444 ? 29.2°
Reaches altitude 10° 21:53:55 10° 358° (N) 2,473 ? 28.6°
Maximum altitude 21:58:44 28° 56° (NE) 1,500 ? 27.5°
Drops below altitude 10° 22:03:16 10° 114° (ESE) 2,313 ? 26.6°
Sets 22:05:54 0° 126° (SE) 3,182 ? 26.0°
